Location: Shannon
(40.5500°S, 175.4167°E)
Time: 08:55:10
(UTC+00:00)

H-2A R/B - Pass Details

Date: 17 November 2025
Orbit: 553 x 614 km, 98.5° (Epoch: 14 December)

Event Time Altitude Azimuth Distance (km) Brightness Sun altitude
Exits shadow 15:19:36 20° 276° (W) 1,420 3.4 -14.9°
Maximum altitude 15:19:41 20° 275° (W) 1,420 3.5 -14.9°
Drops below altitude 10° 15:22:45 10° 228° (SW) 1,934 4.5 -14.5°
Sets 15:25:26 0° 210° (SSW) 2,832 5.6 -14.1°
